Regional Weather Roundup
Issued by NWS Charleston, SC

Current Version | Previous Version | Text Only | Print | Product List | Glossary Off
Versions: 1 2 3 4 5 6 7 8 9 10 11 12 13 14 15 16 17 18 19 20 21 22 23 24 25 26 27 28 29 30 31 32 33 34 35 36 37 38 39 40 41 42 43 44 45 46 47 48 49 50
000 ASUS42 KCHS 252210 RWRCHS REGIONAL WEATHER ROUNDUP NATIONAL WEATHER SERVICE CHARLESTON SC 500 PM EST THU DEC 25 2014 NOTE: "FAIR" INDICATES FEW OR NO CLOUDS BELOW 12,000 FEET WITH NO SIGNIFICANT WEATHER AND/OR OBSTRUCTIONS TO VISIBILITY. NOT ALL STATIONS ARE QUALITY CONTROLLED BY THE NATIONAL WEATHER SERVICE. USE DATA WITH CAUTION...ESPECIALLY DEWPOINT OBSERVATIONS. SCZ027-030-031-034>040-042>050-252300- ...SOUTHEAST SOUTH CAROLINA... CITY SKY/WX TMP DP RH WIND PRES REMARKS N CHARLESTON PTCLDY 56 40 55 N7 30.15R WATERFRONT PRK N/A 61 N/A N/A NW3 N/A MOUNT PLEASANT FAIR 57 43 58 CALM 30.15R PINOPOLIS NOT AVBL MONCKS CORNER FAIR 57 41 54 CALM 30.14S SUMMERVILLE FAIR 57 41 54 NW5 30.16S BEAUFORT MCAS CLEAR 58 39 49 NW6 30.16R BEAUFORT ARPT FAIR 57 43 58 NW5 30.15S HILTON HEAD IS CLEAR 57 41 54 CALM 30.17R WALTERBORO CLEAR 59 34 38 W5 30.16S ALLENDALE FAIR 57 39 51 CALM 30.16R ...SOUTHERN MIDLANDS AND PEE DEE... CITY SKY/WX TMP DP RH WIND PRES REMARKS GEORGETOWN NOT AVBL KINGSTREE NOT AVBL ORANGEBURG CLEAR 57 37 47 W6 30.15S BARNWELL FAIR 57 39 51 CALM 30.17R AIKEN FAIR 54 37 54 W5 30.19R MANNING FAIR 59 41 51 CALM 30.15R COLUMBIA CLEAR 57 37 47 NW6 30.15R SUMTER CLEAR 57 38 50 W5 30.13R FLORENCE CLEAR 58 39 49 W5 30.14R MYRTLE BEACH CLEAR 57 43 58 W6 30.14R N MYRTLE BEACH CLEAR 58 42 55 W3 30.13R $$ GAZ063-065-086>088-099>101-113>116-118-119-134>141-150-252300- ...SOUTHEAST GEORGIA... CITY SKY/WX TMP DP RH WIND PRES REMARKS SAVANNAH ARPT PTCLDY 58 38 47 NW7 30.17R HUNTER AAF CLEAR 58 41 54 W6 30.15R FORT STEWART CLEAR 58 39 49 W3 30.16R STATESBORO CLEAR 56 40 55 W6 30.17R SYLVANIA CLEAR 56 43 60 NW3 30.17R CLAXTON FAIR 55 41 58 NW5 30.18R ...CSRA...CENTRAL AND FAR SOUTHEAST GEORGIA... CITY SKY/WX TMP DP RH WIND PRES REMARKS THOMSON CLEAR 56 42 57 W5 30.23R AUGUSTA-BUSH CLEAR 56 35 45 NW6 30.17R AUGUSTA-DANIEL CLEAR 57 36 45 W3 30.18R SWAINSBORO FAIR 59 43 55 NW5 30.19R VIDALIA CLEAR 57 39 51 W5 30.18R EASTMAN FAIR 56 39 52 NW3 30.22R HAZLEHURST FAIR 58 40 51 CALM 30.18R ALMA CLEAR 57 37 47 W5 30.18R WAYCROSS CLEAR 60 44 55 NW6 30.18R JESUP FAIR 59 45 58 CALM 30.18R BAXLEY FAIR 59 39 47 NW5 30.17S BRUNSWICK CLEAR 59 39 47 W5 30.18R SAINT SIMONS CLEAR 58 41 53 W5 30.17S $$ SCZ027-028-034-036>038-045-046-048>050-GAZ119-141-252300- ...LAKE AND SUPPLEMENTAL COASTAL OBSERVATIONS... STATION/POSITION TIME TEMP WIND PRES WAVE SWELL AIR SEA DIR/SP/G HT/PER HT/PER/DIR (UTC) (F) (DEG/KT/KT) (MB) (FT/S) (FT/S/D) UPR LAKE MARION NOT AVBL WINYAH BAY 2100 60 280/ 5 1020.0S LAKE MURRAY 2100 56 230/ 6/ 9 1020.3R ACE BASIN NERRS 2100 58 290/ 3 1020.0S FORT PULASKI 2200 58 56 290/ 7/ 7 1021.5R SAPELO ISLAND 2100 60 300/ 7 1021.0S $$ ANZ835-935-AMZ111-154-330-350-352-354-370-450-454-472-252300- ...C-MAN AND BUOY OBSERVATIONS... STATION/POSITION TIME TEMP WIND PRES WAVE SWELL AIR SEA DIR/SP/G HT/PER HT/PER/DIR (UTC) (F) (DEG/KT/KT) (MB) (FT/S) (FT/S/D) BUOY 41004 2200 57 71 320/ 10/ 14 1020.7R 4/ 6 3/ 6 BUOY 41008 2200 55 58 210/ 4/ 4 1021.9R 1/10 2/ 90/10 FOLLY BEACH CMAN 2200 57 260/ 2/ 2 1021.4R CAPERS NEARSHORE 2100 55 230/ 10/ 12 N/A FRIPP NEARSHORE NOT AVBL STATION/POSITION TIME TEMP WIND PRES WAVE SWELL AIR SEA DIR/SP/G HT/PER HT/PER/DIR (UTC) (F) (DEG/KT/KT) (MB) (FT/S) (FT/S/D) 5E ST. MARYS GA 2200 60 N/A 1/11 FRYING PAN BUOY 2200 57 70 290/ 10/ 14 1021.0R 4/ 7 3/190/ 7 BUOY 41025 2200 58 1019.6R 6/ 9 CAPE LOOKOUT NC 2200 57 300/ 5/ 6 1019.4R BUOY 41002 2052 70 75 300/ 14/ 19 1019.6R 9/ 8 7/240/ 8 BUOY 41010 2200 69 76 340/ 8/ 12 1021.4R 6/ 7 5/320/ 7 ST AUGUSTINE FL 2200 57 30/ 4/ 5 1022.8R $$

USA.gov is the U.S. government's official web portal to all federal, state and local government web resources and services.